Content
SEND FEEDBACK

Daily
Averages
Monthly
Summary
United States of America

HAZELWOOD, MISSOURI


Home > North America > United States > Missouri
Elevation: 570 feet     Latitude: 38 45N     Longitude: 090 22W

WEATHER
 
SELECT A DAY
Number of Records: 196,364;   Date Range: 1/1/95 - 7/26/14
 
SHARE

PRINT THIS DATA

[ ← Previous Day ]
WEATHER ALMANAC - FEBRUARY 1, 2013
[ Next Day → ]
[ °C ]   °F
Weather ElementAverageHighLow
Temperature19.9 °F30 °F (11:54 pm)8.1 °F (6:54 am)
Dewpoint2.8 °F9 °F (9:54 pm)-2 °F (2:54 am)
Humidity49.2 %70 % (6:54 am)37 % (2:54 pm)
Barometer30.42 in30.55 in (8:54 am)30.25 in (11:54 pm)
Wind Speed6 mph12.7 mph (1:54 am)
Weather ElementAverage
Visibility10 mi
Wind DirectionSSW (194.8 °)

Weather ElementTotal
Precipitation---
Heating Degree Days46 (Base 65)
Averaged from 23 records on February 1, 2013
WEATHER CONDITIONS BREAKOUT
WIND DIRECTION BREAKOUT
WEATHER BY HOUR - FEBRUARY 1, 2013
[ °C ]   °F
Local TimeTemperatureDewpointHumidityBarometerVisibilityWind DirectionWind SpeedGust SpeedPrecipitationEventsConditions
1:54 AM10.9 °F-0.9 °F59 %30.47 in10.0 miWNW (290°)12.7 mphClear
2:54 AM10.0 °F-2.0 °F58 %30.47 in10.0 miWNW (290°)10.4 mphClear
3:54 AM10.0 °F-0.9 °F61 %30.47 in10.0 miWest (280°)8.1 mphClear
4:54 AM9.0 °F0.0 °F67 %30.48 in10.0 miWest (270°)5.8 mphClear
5:54 AM9.0 °F0.0 °F67 %30.50 in10.0 miWest (260°)5.8 mphClear
6:54 AM8.1 °F0.0 °F70 %30.50 in10.0 miWest (260°)4.6 mphClear
7:54 AM10.0 °F0.0 °F64 %30.52 in10.0 miWSW (250°)8.1 mphClear
8:54 AM12.0 °F-0.9 °F56 %30.55 in10.0 miWest (260°)9.2 mphClear
9:54 AM14.0 °F0.0 °F54 %30.54 in10.0 miSW (230°)8.1 mphClear
10:54 AM17.1 °F1.9 °F52 %30.53 in10.0 miWest (280°)4.6 mphClear
11:54 AM19.0 °F1.9 °F47 %30.51 in10.0 miSW (230°)9.2 mphClear
12:54 PM21.9 °F3.0 °F44 %30.47 in10.0 miSW (230°)11.5 mphClear
1:54 PM25.0 °F3.9 °F41 %30.43 in10.0 miWest (270°)8.1 mphScattered Clouds
2:54 PM26.1 °F3.0 °F37 %30.40 in10.0 miWest (260°)6.9 mphScattered Clouds
3:54 PM27.0 °F3.9 °F37 %30.39 in10.0 miWest (260°)4.6 mphScattered Clouds
4:54 PM28.0 °F5.0 °F38 %30.38 in10.0 miSW (220°)6.9 mphMostly Cloudy
5:54 PM28.0 °F5.0 °F38 %30.36 in10.0 miCalmOvercast
6:54 PM28.0 °F5.0 °F38 %30.35 in10.0 miCalmOvercast
7:54 PM28.0 °F5.0 °F38 %30.32 in10.0 miCalmOvercast
8:54 PM28.0 °F7.0 °F41 %30.31 in10.0 miCalmOvercast
9:54 PM28.9 °F9.0 °F43 %30.30 in10.0 miSSE (160°)3.5 mphOvercast
10:54 PM28.9 °F8.1 °F41 %30.27 in10.0 miSouth (180°)5.8 mphOvercast
11:54 PM30.0 °F8.1 °F40 %30.25 in10.0 miVariable4.6 mphOvercast
Hourly data recorded from KSUS, located miles away from Hazelwood, Missouri







STORIES FROM OUR PARTNERS